Terminal Aerodrome Forecast
Issued by NWS

Home | Current Version | Previous Version | Text Only | Print | Product List | Glossary On
Versions: 1 2 3 4 5 6 7 8 9 10 11 12 13 14 15 16 17 18 19 20 21 22 23 24 25 26 27 28 29
000
FTUS41 KBGM 311100
TAFITH
TAF
KITH 311137Z 3112/0112 21006KT P6SM SCT040 BKN070
      TEMPO 3112/3116 4SM -SHRA BR OVC040
     FM311600 26010KT P6SM BKN050
      TEMPO 3118/3122 5SM SHRA BR OVC035
     FM010100 VRB03KT P6SM BKN100=

USA.gov is the U.S. government's official web portal to all federal, state and local government web resources and services.